Regional Weather Roundup
Issued by NWS

Home | Current Version | Previous Version | Text Only | Print | Product List | Glossary Off
Versions: 1 2 3 4 5 6 7 8 9 10 11 12 13 14 15 16 17 18 19 20 21 22 23 24 25 26 27 28 29 30 31 32 33 34 35 36 37 38 39 40 41 42 43 44 45 46 47 48 49 50

000
ASUS43 KLSX 202157
RWRMO

WEATHER SUMMARY FOR MISSOURI
NATIONAL WEATHER SERVICE SPRINGFIELD MO
500 PM CDT WED SEP 20 2017

NOTE: "FAIR" INDICATES FEW OR NO CLOUDS BELOW 12,000 FEET WITH NO
       SIGNIFICANT WEATHER AND/OR OBSTRUCTIONS TO VISIBILITY.
       CURRENT SKY AND/OR WEATHER CONDITIONS ARE NOT AVAILABLE FOR
       CHILLICOTHE AND FARMINGTON.

MOZ001>031-035>038-043-044-053-054-202300-
...NORTHERN AND WESTERN MISSOURI...

CITY           SKY/WX    TMP DP  RH WIND       PRES   REMARKS
KANSAS CTY INT PTSUNNY   85  73  67 S10       29.80F HX  91
LEE`S SUMMIT   CLOUDY    88  74  63 SW13      29.81S HX  96
ST JOSEPH      MOSUNNY   88  72  58 S12       29.79S HX  94
CHILLICOTHE      N/A     87  75  67 SW3       29.81S HX  96

$$
MOZ066>068-077>081-088>096-101>105-202300-
...SOUTHWEST MISSOURI...

CITY           SKY/WX    TMP DP  RH WIND       PRES   REMARKS
SPRINGFIELD    SUNNY     92  69  47 S13       29.86S HX  97
BRANSON        MOSUNNY   93  64  38 S9        29.90F HX  95

$$
MOZ032>034-039>042-045>050-055>058-069>072-202300-
...CENTRAL MISSOURI...

CITY           SKY/WX    TMP DP  RH WIND       PRES   REMARKS
COLUMBIA       NOT AVBL
JEFFERSON CITY SUNNY    N/A N/A N/A S12       29.82F
ROLLA          SUNNY     92  69  47 S10       29.89F HX  97
SEDALIA        SUNNY     92  76  59 S14       29.83S HX 104
WARRENSBURG    MOSUNNY   90  70  51 S15       29.80S HX  95

$$
MOZ051-052-059>065-202300-
...EAST CENTRAL MISSOURI...

CITY           SKY/WX    TMP DP  RH WIND       PRES   REMARKS
ST LOUIS INTL  MOSUNNY   94  68  42 S10       29.87S HX  98

$$
MOZ072>076-082>087-097>100-106>115-202300-
...SOUTH CENTRAL AND SOUTHEAST MISSOURI...

CITY           SKY/WX    TMP DP  RH WIND       PRES   REMARKS
CAPE GIRARDEAU MOSUNNY   90  69  50 SW10      29.91S HX  94
POPLAR BLUFF   SUNNY     91  69  48 SW8       29.91R HX  96
WEST PLAINS    MOSUNNY   91  68  46 S8        29.93S HX  95

$$



USA.gov is the U.S. government's official web portal to all federal, state and local government web resources and services.